Volver al catálogo

STARLINK-30284

ActivoComunicacionesVLEO
NORAD 57877·PAYLOAD·🇺🇸 United States

Lanzado Sep 16, 2023 desde Cape Canaveral Space Force Station

Loading…

Próximos Pases (próximas 24 horas)

TLE

ActualizadoSource: CelesTrak SupGP

Época: Sep 14, 2026, 21:11 UTC

1 57877C 23144P   26257.88312500  .00031465  00000+0  11398-2 0  2576
2 57877  42.9998 260.0949 0001495 259.6544  89.6794 15.27558850    11

Sigue STARLINK-30284 en tiempo real con AllMySat

Download on the App Store